Home   Weather   Cairo   Past weeks
Flag for Egypt

Past Weather in Cairo, Egypt — Yesterday and Last 2 Weeks

Now
61 °F

Fog.


Feels Like: 61 °F
Forecast: 67 / 57 °F
Wind: 12 mph from North

Location: Cairo Airport

Current Time: Mar 24, 2019 at 3:49:11 am

Latest Report: Mar 24, 2019 at 3:00 am


Visibility: 2 mi

Pressure: 29.68 "Hg

Humidity: 83%

Dew Point: 55 °F

Location of CairoLocation

Past Weather in Cairo — Graph

°F

Cairo Temperature Yesterday

Maximum temperature yesterday: 79 °F (at 12:30 pm)
Minimum temperature yesterday: 61 °F (at 6:00 am)
Average temperature yesterday: 69 °F

High & Low Weather Summary for the Past Weeks

 TemperatureHumidityPressure
High79 °F (Mar 22, 1:30 pm)94% (Mar 9, 5:00 am)30.30 "Hg (Mar 9, 5:00 am)
Low52 °F (Mar 9, 6:30 am)17% (Mar 12, 2:00 pm)29.65 "Hg (Mar 24, 12:00 am)
Average65 °F56%30.03 "Hg
* Reported Mar 9 2:00 am — Mar 24 2:30 am, Cairo. Weather by CustomWeather, © 2019

Note: Actual official high and low records may vary slightly from our data, if they occured in-between our weather recording intervals... More about our weather records

Advertising

Cairo Weather History for the Previous 24 Hours

Scroll right to see more
 ConditionsComfort  
Time TempWeatherWind HumidityBarometerVisibility
2:30 am
Sun, Mar 24
61 °FClear.14 mph88%29.68 "Hg4 mi
2:00 am61 °FClear.15 mph88%29.68 "Hg10 mi
1:30 am61 °FClear.12 mph88%29.68 "Hg10 mi
1:00 am61 °FClear.14 mph88%29.68 "Hg10 mi
12:30 am61 °FClear.15 mph88%29.68 "Hg10 mi
12:00 am63 °FClear.14 mph83%29.65 "Hg10 mi
11:30 pm
Sat, Mar 23
63 °FClear.14 mph77%29.68 "Hg10 mi
11:00 pm63 °FClear.13 mph73%29.68 "Hg10 mi
10:30 pm63 °FClear.17 mph73%29.68 "Hg10 mi
10:00 pm64 °FClear.15 mph64%29.71 "Hg10 mi
9:30 pm64 °FClear.17 mph64%29.71 "Hg10 mi
9:00 pm66 °FClear.17 mph60%29.74 "Hg10 mi
8:30 pm68 °FClear.18 mph53%29.74 "Hg10 mi
8:00 pm68 °FClear.17 mph53%29.74 "Hg10 mi
7:30 pm70 °FPassing clouds.17 mph46%29.71 "HgN/A
7:00 pm72 °FPassing clouds.16 mph36%29.71 "HgN/A
6:30 pm73 °FPassing clouds.18 mph31%29.71 "HgN/A
6:00 pm73 °FScattered clouds.17 mph31%29.74 "HgN/A
5:30 pm75 °FScattered clouds.17 mph27%29.74 "HgN/A
5:00 pm75 °FScattered clouds.18 mph27%29.74 "HgN/A
4:30 pm77 °FScattered clouds.18 mph26%29.74 "HgN/A
4:00 pm77 °FScattered clouds.20 mph24%29.74 "HgN/A
3:00 pm79 °FScattered clouds.20 mph24%29.77 "HgN/A
2:30 pm79 °FScattered clouds.20 mph23%29.77 "HgN/A
1:30 pm79 °FScattered clouds.16 mph23%29.80 "HgN/A
1:00 pm79 °FScattered clouds.16 mph23%29.83 "HgN/A
12:30 pm79 °FScattered clouds.15 mph24%29.83 "HgN/A
12:00 pm77 °FScattered clouds.15 mph26%29.86 "HgN/A
11:30 am75 °FPartly sunny.14 mph31%29.86 "HgN/A
11:00 am73 °FPartly sunny.13 mph33%29.86 "HgN/A
10:30 am72 °FPartly sunny.12 mph38%29.89 "HgN/A
10:00 am70 °FPartly sunny.12 mph38%29.89 "HgN/A
9:00 am68 °FPartly sunny.13 mph40%29.89 "HgN/A
8:30 am68 °FBroken clouds.14 mph40%29.89 "HgN/A
8:00 am66 °FPartly sunny.9 mph49%29.89 "HgN/A
7:30 am64 °FPartly sunny.8 mph56%29.89 "HgN/A
7:00 am63 °FBroken clouds.10 mph59%29.89 "HgN/A
6:30 am63 °FBroken clouds.12 mph59%29.89 "HgN/A
6:00 am61 °FBroken clouds.12 mph72%29.86 "HgN/A
5:00 am63 °FPassing clouds.12 mph68%29.89 "HgN/A
4:30 am63 °FPassing clouds.10 mph68%29.89 "HgN/A
4:00 am63 °FPassing clouds.12 mph68%29.92 "HgN/A
3:30 am63 °FPassing clouds.13 mph68%29.92 "HgN/A
3:00 am63 °FPassing clouds.13 mph73%29.92 "HgN/A
Weather by CustomWeather, © 2019

See weather overview